STARLINK-34561, 65081

Orbit data source: Space-Track

STARLINK-34561, 65081 is a payload satellite owned by SpaceX/Seattle (US) in LEO that was launched on Mon, 04 Aug 2025 UTC via an FALCON 9 launch vehicle from the Air Force Eastern Test Range (AFETR). Payload-class satellites include a variety of spacecraft equipped with specific instruments for various scientific and technological missions. These include communications satellites like Starlink; space stations such as the ISS; scientific satellites like the Hubble; Earth observation satellites from companies like Planet Labs, Umbra, and HawkEye 360; GPS; miniature CubeSats for education and research; and military/defense satellites.

Loading next visibility...
Identifier
65081, 2025-167D
Orbit
LEO
Country
Flag of USUS
Related business
Manufacturer
SpaceX/Seattle
Mission
Operational Commercial Communications
Bus & Motor
STARLINK V2MO, Unknown motor
Mass
575 kg wet, ~530 kg dry
Launch date (UTC)
2025-08-04 (11 months ago)
Launch vehicle
FALCON 9
Launch site
Air Force Eastern Test Range (AFETR)
Object type
Payload
Rocket body
Debris
Shape & HBR
Box + 2 Pan, 17.7 m
Radar Cross Section
36.964 m², Large (>1 m²)

Expand to show TLE details & history
Last TLE update: 2 days ago

TLE from 2 days ago
0 STARLINK-34561
1 65081U 25167D   26173.49652803  .00010580  00000-0  36880-3 0  9999
2 65081  53.1604 257.2359 0001253  83.7160 276.3983 15.30202052 50812
Epoch: 2026-06-22T11:55Z
TLE epoch observation values (Epoch: 2026-06-22T11:55:00.021Z)
Latitude
-0.00007°
Longitude
167.80415°
Altitude
476.013 km
Speed
7.629 km/s
True Right ascension
17h 08m 56s
True Declination
0° 00' 00"
Sunlit
Object was in full shadow at epoch
Visualization orbit readout
Latitude
Unknown
Longitude
Unknown
Altitude
Unknown
Speed
Unknown
Apparent Right ascension
Unknown
Apparent Declination
Unknown
Sunlit
N/A
Visualization observer readout
Local Sidereal Time
13:52:50
Azimuth
Unknown
Elevation
Unknown
Doppler factor
Unknown
Orbital elements
Apogee altitude
476.324 km
Perigee altitude
474.607 km
Semi-major axis
6,853.602 km
Eccentricity
0.00013
Inclination
53.1604°
RAAN
257.2359°
Arg. of periapsis
83.716°
True anomaly
276.38403°
Mean anomaly
276.3983°
Eccentric anomaly
276.39117°
Mean motion
3.82529 °/min
Orbital period
94.11 mins
BSTAR
0.0003688
Loading maneuver chart data...
Computing Atmospheric mass density...
Loading historical data...
Loading historical data...
Loading historical data...
Loading historical data...
Loading historical data...
Loading historical data...
Loading historical data...

Documentation

Showing up to 5 results
|